ITY621 KLAX-LIRF

Flight info

Callsign ITY621
Flight time N/A
Altitude 35000
Route ORCKA5 LAS Q70 BLIPP Q842 WINEN DCT MLF J107 OCS/N0490F370 J107 DPR DCT GFK DCT GABOV DCT VIRSO DCT 5630N07000W/N0486F390 DCT LAKES/M085F390 DCT TOXIT DCT 60N050W 6030N04000W 5930N03000W 58N020W DCT SUNOT/N0484F390 DCT KESIX DCT APSOV DCT MAKUX/N0482F410 DCT SOSIM L15 KEPAD L151 MID UL612 OGULO DCT OKASI DCT OKEKO DCT MOU DCT MADIV DCT MOKIP DCT TUFTA DCT KOGAS DCT MEDAM DCT NITAM DCT MOGBO DCT ELB L146 ELKAP
Aircraft A359/H-SDE2E3GHIJ3J4J5LM1ORWXY/LB1D1

Departure

Time 2026-04-24 19:48
Airport Los Angeles International Airport (KLAX)

Arrival

Time N/A
Airport Rome–Fiumicino Leonardo da Vinci International Airport (LIRF)
Time Latitude Longitude Altitude Speed Heading
2026-04-24 18:59 33.94176 -118.41105 132 ft 0 kts 82°
2026-04-24 19:36 33.94173 -118.41141 132 ft 5 kts 85°
2026-04-24 19:36 33.94172 -118.41176 132 ft 3 kts 96°
2026-04-24 19:37 33.94175 -118.41193 132 ft 2 kts 118°
2026-04-24 19:37 33.94181 -118.41203 132 ft 2 kts 148°
2026-04-24 19:37 33.94194 -118.41210 128 ft 3 kts 168°
2026-04-24 19:37 33.94212 -118.41213 132 ft 2 kts 173°
2026-04-24 19:38 33.94187 -118.41210 132 ft 2 kts 173°
2026-04-24 19:38 33.94175 -118.41208 126 ft 2 kts 173°
2026-04-24 19:38 33.94170 -118.41207 127 ft 0 kts 173°
2026-04-24 19:40 33.94164 -118.41206 128 ft 3 kts 172°
2026-04-24 19:41 33.94120 -118.41200 129 ft 10 kts 173°
2026-04-24 19:41 33.94030 -118.41188 130 ft 15 kts 173°
2026-04-24 19:41 33.93930 -118.41174 127 ft 14 kts 173°
2026-04-24 19:41 33.93835 -118.41160 126 ft 10 kts 173°
2026-04-24 19:42 33.93780 -118.41115 124 ft 11 kts 113°
2026-04-24 19:42 33.93774 -118.41011 132 ft 14 kts 83°
2026-04-24 19:42 33.93788 -118.40886 132 ft 17 kts 82°
2026-04-24 19:42 33.93804 -118.40727 129 ft 20 kts 83°
2026-04-24 19:43 33.93821 -118.40559 125 ft 20 kts 83°
2026-04-24 19:43 33.93839 -118.40391 123 ft 20 kts 83°
2026-04-24 19:43 33.93856 -118.40224 128 ft 20 kts 83°
2026-04-24 19:43 33.93874 -118.40055 127 ft 20 kts 83°
2026-04-24 19:44 33.93889 -118.39884 132 ft 20 kts 83°
2026-04-24 19:44 33.93906 -118.39714 132 ft 21 kts 83°
2026-04-24 19:44 33.93924 -118.39543 132 ft 21 kts 83°
2026-04-24 19:44 33.93943 -118.39373 125 ft 21 kts 83°
2026-04-24 19:45 33.93961 -118.39202 126 ft 21 kts 83°
2026-04-24 19:45 33.93979 -118.39031 132 ft 21 kts 83°
2026-04-24 19:45 33.93994 -118.38858 132 ft 21 kts 84°
2026-04-24 19:45 33.94012 -118.38688 123 ft 20 kts 80°
2026-04-24 19:46 33.94030 -118.38519 132 ft 20 kts 83°
2026-04-24 19:46 33.94046 -118.38351 132 ft 20 kts 83°
2026-04-24 19:46 33.94063 -118.38182 130 ft 20 kts 83°
2026-04-24 19:46 33.94065 -118.38034 125 ft 11 kts 125°
2026-04-24 19:47 33.94007 -118.38011 129 ft 7 kts 185°
2026-04-24 19:47 33.93982 -118.38040 126 ft 4 kts 262°
2026-04-24 19:47 33.93962 -118.38248 126 ft 54 kts 264°
2026-04-24 19:47 33.93891 -118.38929 129 ft 108 kts 263°
2026-04-24 19:48 33.93780 -118.40023 129 ft 154 kts 263°
2026-04-24 19:48 33.93628 -118.41411 449 ft 165 kts 260°
2026-04-24 19:48 33.93333 -118.44196 1471 ft 177 kts 258°
2026-04-24 19:49 33.92941 -118.47088 2331 ft 181 kts 254°
2026-04-24 19:49 33.91895 -118.50075 2774 ft 203 kts 239°
2026-04-24 19:50 33.89654 -118.54514 3894 ft 218 kts 250°
2026-04-24 19:50 33.89185 -118.56320 4110 ft 234 kts 252°
2026-04-24 19:51 33.88064 -118.60212 4735 ft 256 kts 249°
2026-04-24 19:51 33.87423 -118.62204 5312 ft 256 kts 249°
2026-04-24 19:52 33.85783 -118.66123 6185 ft 269 kts 230°
2026-04-24 19:52 33.84318 -118.67515 6683 ft 273 kts 207°
2026-04-24 19:52 33.82460 -118.67997 7167 ft 278 kts 179°
2026-04-24 19:52 33.80611 -118.67317 7643 ft 284 kts 148°
2026-04-24 19:53 33.79253 -118.65578 8060 ft 294 kts 120°
2026-04-24 19:53 33.78790 -118.63185 8476 ft 300 kts 86°
2026-04-24 19:53 33.80785 -118.58935 9467 ft 302 kts 41°
2026-04-24 19:54 33.82318 -118.57193 9959 ft 305 kts 42°
2026-04-24 19:54 33.83837 -118.55413 10251 ft 315 kts 43°
2026-04-24 19:54 33.85407 -118.53499 10450 ft 328 kts 44°
2026-04-24 19:54 33.87019 -118.51481 10644 ft 341 kts 45°
2026-04-24 19:55 33.87575 -118.50778 10709 ft 345 kts 45°
2026-04-24 19:55 33.90392 -118.47181 11025 ft 365 kts 45°
2026-04-24 19:55 33.92151 -118.44914 11211 ft 376 kts 46°
2026-04-24 19:55 33.93807 -118.42408 11402 ft 388 kts 53°